Home > Weather > Stange > Past weeks

Flag for Norway Past Weather in Stange, Norway — Yesterday and Last 2 Weeks

Now
61 °F

Cool.


Feels Like: 61 °F
Forecast: 51 / 67 °F
Wind: 3 mph from Southeast

Location: Haugedalshogda

Current Time: Jul 26, 2016 at 2:44:44 AM

Latest Report: Jul 26, 2016 at 2:00 AM


Visibility: N/A

Pressure: 29.96 "Hg

Humidity: 86%

Dew Point: 56 °F

Location of StangeLocation

Past Weather in Stange — Graph

°F

Stange Temperature Yesterday

Maximum temperature yesterday: 78 °F (at 2:00 PM)
Minimum temperature yesterday: 49 °F (at 4:00 AM)
Average temperature yesterday: 64 °F

High & Low Weather Summary for the Past Weeks

 TemperatureHumidityPressure
High80 °F (Jul 21, 3:00 PM)100% (Jul 11, 8:00 AM)30.16 "Hg (Jul 11, 8:00 AM)
Low42 °F (Jul 20, 5:00 AM)28% (Jul 15, 6:00 PM)29.41 "Hg (Jul 11, 4:00 PM)
Average62 °F67%29.89 "Hg
* Reported Jul 11 1:00 AM — Jul 26 1:00 AM, Stange, Weather by CustomWeather, © 2016

Note: Actual official high and low records may vary slightly from our data, if they occured in-between our weather recording intervals... More about our weather records

Advertising

Stange Weather History for the Previous 24 Hours

Scroll right to see more
 ConditionsComfort  
Time TempWeatherWind HumidityBarometerVisibility
1:00 AM
Tue, Jul 26
62 °FCool.3 mph81%29.96 "HgN/A
12:00 AM60 °FCool.1 mph88%29.97 "HgN/A
11:00 PM
Mon, Jul 25
60 °FCool.1 mph83%29.97 "HgN/A
10:00 PM63 °FMild.2 mph74%29.98 "HgN/A
9:00 PM66 °FMild.2 mph68%29.97 "HgN/A
8:00 PM68 °FMild.3 mph63%29.96 "HgN/A
7:00 PM69 °FMild.6 mph62%29.98 "HgN/A
6:00 PM72 °FMild.5 mph54%29.96 "HgN/A
4:00 PM77 °FWarm.7 mph41%29.95 "HgN/A
3:00 PM77 °FPleasantly warm.7 mph39%29.97 "HgN/A
2:00 PM78 °FWarm.6 mph46%29.98 "HgN/A
1:00 PM75 °FMild.1 mph56%30.01 "HgN/A
12:00 PM72 °FMild.2 mph63%30.03 "HgN/A
11:00 AM66 °FMild.1 mph77%30.06 "HgN/A
10:00 AM64 °FMild.1 mph82%30.07 "HgN/A
9:00 AM66 °FMild.1 mph73%30.07 "HgN/A
8:00 AM63 °FMild.No wind84%30.08 "HgN/A
7:00 AM57 °FCool.1 mph100%30.09 "HgN/A
6:00 AM55 °FCool.No windN/A30.10 "HgN/A
5:00 AM50 °FCool.1 mphN/A30.11 "HgN/A
4:00 AM49 °FCool.No wind100%30.11 "HgN/A
3:00 AM50 °FCool.1 mph99%30.11 "HgN/A
2:00 AM53 °FCool.1 mph98%30.10 "HgN/A
Weather by CustomWeather, © 2016

See weather overviewHow to use our weather pages